Regional Weather Roundup
Issued by NWS Northern Indiana

Home | Current Version | Previous Version | Text Only | Print | Product List | Glossary On
Versions: 1 2 3 4 5 6 7 8 9 10 11 12 13 14 15 16 17 18 19 20 21 22 23 24 25 26 27 28 29 30 31 32 33 34 35 36 37 38 39 40 41 42 43 44 45 46 47 48 49 50
000
ASUS43 KIWX 081310
RWRIWX

KIWX WEATHER ROUNDUP
NATIONAL WEATHER SERVICE NORTHERN INDIANA
800 AM EST MON FEB 08 2016

NOTE: "FAIR" INDICATES FEW OR NO CLOUDS BELOW 12,000 FEET WITH NO
SIGNIFICANT WEATHER AND/OR OBSTRUCTIONS TO VISIBILITY.

* THESE STATIONS ARE NOT UNDER NWS QUALITY CONTROL. THEY ALSO MAY NOT
  REPORT WEATHER SUCH AS PRECIPITATION OR FOG.

INZ001>027-081400-
NORTHERN INDIANA

CITY           SKY/WX    TMP DP  RH WIND       PRES   REMARKS
GARY*          CLOUDY    32  28  86 SW6       29.64S WCI  26
VALPARAISO     CLOUDY    30  27  88 SW7       29.64S WCI  23
MICHIGAN CITY* CLOUDY    30  28  93 SW7       29.64S WCI  23
LAPORTE*       CLOUDY    30  30 100 SW6       29.64S WCI  24
SOUTH BEND     CLOUDY    25  23  92 SW5       29.63S WCI  19
ELKHART*         N/A     27  25  93 CALM      29.63S
GOSHEN         MOCLDY    28  25  88 S5        29.63S WCI  23
MONTICELLO*    PTCLDY    30  26  83 W3        29.66R
LOGANSPORT*    CLOUDY    32  27  80 SW5       29.66S WCI  27
ROCHESTER*     CLOUDY    34  28  80 SW5       29.65S WCI  30
WARSAW*        PTCLDY    28  27  93 CALM      29.64S
ANGOLA*        CLOUDY    27  27 100 CALM      29.62S
FORT WAYNE     MOCLDY    32  30  92 W7        29.65S WCI  26
HUNTINGTON*    CLOUDY    30  26  88 SW3       29.65S
PERU/GRISSOM   MOCLDY    32  29  91 SE1       29.64S
MARION*        LGT SNOW  32  26  77 W7        29.66S WCI  26

$$
INZ028>050-081400-
CENTRAL INDIANA

CITY           SKY/WX    TMP DP  RH WIND       PRES   REMARKS
LAFAYETTE      PTCLDY    29  26  89 SW3       29.67S
KOKOMO*          N/A     34  27  75 S3        29.66S
MUNCIE*        CLOUDY    35  30  82 W10       29.65S WCI  27
INDIANAPOLIS   CLOUDY    33  31  92 W8        29.67S WCI  26

$$
MIZ043>046-050>051-056>058-064>065-071>073-077>080-081400-
SOUTHWEST LOWER MICHIGAN

CITY           SKY/WX    TMP DP  RH WIND       PRES   REMARKS
BATTLE CREEK   CLEAR     26  24  92 SW3       29.62R FOG
BENTON HARBOR  CLOUDY    31  28  89 S3        29.62S
COLDWATER*     CLEAR     28  28  98 S3        29.62S
HILLSDALE*     CLEAR     30  28  92 CALM      29.61S
HOLLAND        PTCLDY    30  27  88 S5        29.61R WCI  25
GRAND RAPIDS   CLOUDY    30  28  92 S7        29.61S WCI  23
KALAMAZOO      CLEAR     27  23  85 S3        29.62R
STURGIS*       CLOUDY    27  25  94 S3        29.62S
THREE RIVERS*  FAIR      27  27  99 S3        29.63S

$$
OHZ001>008-015>018-024>025-081400-
NORTHWEST OHIO

CITY           SKY/WX    TMP DP  RH WIND       PRES   REMARKS
DEFIANCE       CLEAR     32  28  85 CALM      29.64F
FINDLAY        CLOUDY    35  30  82 W7        29.62F WCI  29
TOLEDO EXPRESS CLOUDY    32  29  88 SW6       29.63S WCI  26
TOLEDO METCALF CLOUDY    34  30  85 W6        29.64R WCI  29
LIMA           CLOUDY    33  30  88 W8        29.63S WCI  26

$$
AND FOR LAKE MICHIGAN COASTAL AND OPEN LAKE BUOY OBSERVATIONS

STATION/POSITION TEMP    WIND        PRES    VSBY  WAVE
                 AIR SEA DIR/SP/G                  HT/PER
                 (F)     (DEG/KT/KT) (MB)    (MI)  (FT/S)
CALUMET HARBOR    31     220/  5/  8 1002.8F
MICHIGAN CITY     30     180/ 10/ 13   N/A
BURNS HARBOR      31     210/ 10/ 12 1004.4S
SAINT JOSEPH      33     190/ 12/ 14 1004.1R

$$
&&



USA.gov is the U.S. government's official web portal to all federal, state and local government web resources and services.